Time,TemperatureF,DewpointF,PressureIn,WindDirection,WindDirectionDegrees,WindSpeedMPH,WindSpeedGustMPH,Humidity,HourlyPrecipIn,Conditions,Clouds,dailyrainin,SoftwareType,DateUTC
2013-07-08 00:04:00,56.4,53.8,29.81,SW,233,6.0,11.0,91,0.00,,,0.00,WeatherTracker,2013-07-08 07:04:00,
2013-07-08 00:09:00,56.2,53.6,29.81,SW,227,1.0,14.0,91,0.00,,,0.00,WeatherTracker,2013-07-08 07:09:00,
2013-07-08 00:14:00,56.2,53.3,29.81,ESE,120,4.0,14.0,90,0.00,,,0.00,WeatherTracker,2013-07-08 07:14:00,
2013-07-08 00:19:00,56.1,53.2,29.81,East,82,0.0,6.0,90,0.00,,,0.00,WeatherTracker,2013-07-08 07:19:00,
2013-07-08 00:24:00,56.0,53.1,29.81,NW,322,1.0,10.0,90,0.00,,,0.00,WeatherTracker,2013-07-08 07:24:00,
2013-07-08 00:29:00,55.9,53.0,29.81,WNW,300,2.0,10.0,90,0.00,,,0.00,WeatherTracker,2013-07-08 07:29:00,
2013-07-08 00:34:00,56.0,53.1,29.81,WSW,249,0.0,11.0,90,0.00,,,0.00,WeatherTracker,2013-07-08 07:34:00,
2013-07-08 00:39:00,56.0,53.1,29.81,West,272,2.0,11.0,90,0.00,,,0.00,WeatherTracker,2013-07-08 07:39:00,
2013-07-08 00:44:00,55.9,53.0,29.81,North,360,5.0,15.0,90,0.00,,,0.00,WeatherTracker,2013-07-08 07:44:00,
2013-07-08 00:49:00,55.9,53.0,29.81,ENE,67,0.0,14.0,90,0.00,,,0.00,WeatherTracker,2013-07-08 07:49:00,
2013-07-08 00:55:00,56.0,53.1,29.81,SW,231,10.0,14.0,90,0.00,,,0.00,WeatherTracker,2013-07-08 07:55:00,
2013-07-08 01:00:00,55.9,52.7,29.82,WNW,286,6.0,10.0,89,0.00,,,0.00,WeatherTracker,2013-07-08 08:00:00,
2013-07-08 01:05:00,55.9,52.7,29.82,WNW,295,4.0,14.0,89,0.00,,,0.00,WeatherTracker,2013-07-08 08:05:00,
2013-07-08 01:10:00,55.9,52.7,29.82,WNW,288,16.0,16.0,89,0.00,,,0.00,WeatherTracker,2013-07-08 08:10:00,
2013-07-08 01:15:00,55.7,52.8,29.81,West,273,7.0,19.0,90,0.00,,,0.00,WeatherTracker,2013-07-08 08:15:00,
2013-07-08 01:20:00,55.7,52.8,29.81,NNW,327,4.0,21.0,90,0.00,,,0.00,WeatherTracker,2013-07-08 08:20:00,
2013-07-08 01:25:00,55.7,52.8,29.81,NW,319,6.0,21.0,90,0.00,,,0.00,WeatherTracker,2013-07-08 08:25:00,
2013-07-08 01:30:00,56.0,52.8,29.81,WNW,300,8.0,17.0,89,0.00,,,0.00,WeatherTracker,2013-07-08 08:30:00,
2013-07-08 01:35:00,56.0,52.8,29.81,WNW,284,12.0,17.0,89,0.00,,,0.00,WeatherTracker,2013-07-08 08:35:00,
2013-07-08 01:40:00,55.6,52.4,29.81,West,277,9.0,19.0,89,0.00,,,0.00,WeatherTracker,2013-07-08 08:40:00,
2013-07-08 01:45:00,55.5,52.6,29.82,NNW,346,1.0,19.0,90,0.00,,,0.00,WeatherTracker,2013-07-08 08:45:00,
2013-07-08 01:50:00,55.4,52.5,29.82,WNW,301,2.0,18.0,90,0.00,,,0.00,WeatherTracker,2013-07-08 08:50:00,
2013-07-08 01:55:00,55.4,52.5,29.82,NW,324,7.0,19.0,90,0.00,,,0.00,WeatherTracker,2013-07-08 08:55:00,
2013-07-08 02:00:00,55.3,52.7,29.82,WNW,285,7.0,19.0,91,0.00,,,0.00,WeatherTracker,2013-07-08 09:00:00,
2013-07-08 02:05:00,55.3,52.7,29.82,WSW,244,6.0,21.0,91,0.00,,,0.00,WeatherTracker,2013-07-08 09:05:00,
2013-07-08 02:10:00,55.2,52.6,29.82,WNW,295,13.0,16.0,91,0.00,,,0.00,WeatherTracker,2013-07-08 09:10:00,
2013-07-08 02:15:00,55.2,52.6,29.82,West,271,9.0,20.0,91,0.00,,,0.00,WeatherTracker,2013-07-08 09:15:00,
2013-07-08 02:21:00,55.2,52.9,29.82,West,267,8.0,20.0,92,0.00,,,0.00,WeatherTracker,2013-07-08 09:21:00,
2013-07-08 02:26:00,55.1,52.8,29.82,WNW,293,16.0,18.0,92,0.00,,,0.00,WeatherTracker,2013-07-08 09:26:00,
2013-07-08 02:31:00,55.2,52.6,29.82,NW,317,4.0,18.0,91,0.00,,,0.00,WeatherTracker,2013-07-08 09:31:00,
2013-07-08 02:36:00,55.1,52.5,29.82,NNW,339,3.0,17.0,91,0.00,,,0.00,WeatherTracker,2013-07-08 09:36:00,
2013-07-08 02:41:00,55.1,52.5,29.82,NNW,333,11.0,25.0,91,0.00,,,0.00,WeatherTracker,2013-07-08 09:41:00,
2013-07-08 02:46:00,55.1,52.8,29.82,NW,307,7.0,25.0,92,0.00,,,0.00,WeatherTracker,2013-07-08 09:46:00,
2013-07-08 02:51:00,55.1,52.8,29.82,West,259,3.0,23.0,92,0.00,,,0.00,WeatherTracker,2013-07-08 09:51:00,
2013-07-08 02:56:00,55.0,52.7,29.82,West,268,14.0,21.0,92,0.00,,,0.00,WeatherTracker,2013-07-08 09:56:00,
2013-07-08 03:01:00,55.1,52.8,29.82,WNW,286,5.0,21.0,92,0.00,,,0.00,WeatherTracker,2013-07-08 10:01:00,
2013-07-08 03:06:00,55.1,52.8,29.82,NW,322,3.0,21.0,92,0.00,,,0.00,WeatherTracker,2013-07-08 10:06:00,
2013-07-08 03:11:00,55.2,52.9,29.82,West,259,15.0,20.0,92,0.00,,,0.00,WeatherTracker,2013-07-08 10:11:00,
2013-07-08 03:16:00,55.3,53.0,29.82,NW,304,9.0,20.0,92,0.00,,,0.00,WeatherTracker,2013-07-08 10:16:00,
2013-07-08 03:21:00,55.2,52.9,29.82,WSW,248,5.0,19.0,92,0.00,,,0.00,WeatherTracker,2013-07-08 10:21:00,
2013-07-08 03:26:00,55.2,52.9,29.82,West,264,10.0,19.0,92,0.00,,,0.00,WeatherTracker,2013-07-08 10:26:00,
2013-07-08 03:31:00,55.3,53.0,29.82,SW,236,7.0,19.0,92,0.00,,,0.00,WeatherTracker,2013-07-08 10:31:00,
2013-07-08 03:36:00,55.3,53.0,29.82,NW,325,6.0,16.0,92,0.00,,,0.00,WeatherTracker,2013-07-08 10:36:00,
2013-07-08 03:41:00,55.4,53.1,29.82,NW,323,5.0,16.0,92,0.00,,,0.00,WeatherTracker,2013-07-08 10:41:00,
2013-07-08 03:47:00,55.4,53.1,29.82,WNW,291,7.0,16.0,92,0.00,,,0.00,WeatherTracker,2013-07-08 10:47:00,
2013-07-08 03:52:00,55.5,53.2,29.82,West,261,3.0,16.0,92,0.00,,,0.00,WeatherTracker,2013-07-08 10:52:00,
2013-07-08 03:57:00,55.5,53.2,29.82,WSW,254,11.0,14.0,92,0.00,,,0.00,WeatherTracker,2013-07-08 10:57:00,
2013-07-08 04:02:00,55.5,53.2,29.82,NW,315,5.0,18.0,92,0.00,,,0.00,WeatherTracker,2013-07-08 11:02:00,
2013-07-08 04:07:00,55.5,53.2,29.82,WSW,245,11.0,18.0,92,0.00,,,0.00,WeatherTracker,2013-07-08 11:07:00,
2013-07-08 04:12:00,55.6,53.3,29.82,NW,309,3.0,17.0,92,0.00,,,0.00,WeatherTracker,2013-07-08 11:12:00,
2013-07-08 04:17:00,55.7,53.4,29.83,West,268,2.0,17.0,92,0.00,,,0.00,WeatherTracker,2013-07-08 11:17:00,
2013-07-08 04:22:00,55.6,53.3,29.83,WNW,295,4.0,14.0,92,0.00,,,0.00,WeatherTracker,2013-07-08 11:22:00,
2013-07-08 04:27:00,55.7,53.1,29.83,NW,312,4.0,16.0,91,0.00,,,0.00,WeatherTracker,2013-07-08 11:27:00,
2013-07-08 04:32:00,55.8,53.2,29.83,WSW,252,7.0,18.0,91,0.00,,,0.00,WeatherTracker,2013-07-08 11:32:00,
2013-07-08 04:37:00,55.8,53.2,29.83,WSW,258,9.0,18.0,91,0.00,,,0.00,WeatherTracker,2013-07-08 11:37:00,
2013-07-08 04:42:00,55.8,53.2,29.83,SW,219,10.0,17.0,91,0.00,,,0.00,WeatherTracker,2013-07-08 11:42:00,
2013-07-08 04:47:00,55.8,53.2,29.84,SW,226,6.0,22.0,91,0.00,,,0.00,WeatherTracker,2013-07-08 11:47:00,
2013-07-08 04:52:00,55.8,53.2,29.84,WSW,242,14.0,22.0,91,0.00,,,0.00,WeatherTracker,2013-07-08 11:52:00,
2013-07-08 04:57:00,55.7,53.1,29.84,WSW,247,3.0,19.0,91,0.00,,,0.00,WeatherTracker,2013-07-08 11:57:00,
2013-07-08 05:02:00,55.8,53.2,29.84,West,272,3.0,19.0,91,0.00,,,0.00,WeatherTracker,2013-07-08 12:02:00,
2013-07-08 05:07:00,55.7,53.1,29.84,SW,232,2.0,15.0,91,0.00,,,0.00,WeatherTracker,2013-07-08 12:07:00,
2013-07-08 05:12:00,55.8,53.2,29.84,WSW,238,10.0,15.0,91,0.00,,,0.00,WeatherTracker,2013-07-08 12:12:00,
2013-07-08 05:17:00,55.8,53.2,29.84,SW,225,16.0,16.0,91,0.00,,,0.00,WeatherTracker,2013-07-08 12:17:00,
2013-07-08 05:22:00,55.7,52.8,29.84,WSW,238,3.0,17.0,90,0.00,,,0.00,WeatherTracker,2013-07-08 12:22:00,
2013-07-08 05:27:00,55.8,52.9,29.84,WSW,244,9.0,17.0,90,0.00,,,0.00,WeatherTracker,2013-07-08 12:27:00,
2013-07-08 05:33:00,55.7,52.8,29.84,WSW,244,5.0,15.0,90,0.00,,,0.00,WeatherTracker,2013-07-08 12:33:00,
2013-07-08 05:38:00,55.8,52.9,29.84,SW,229,6.0,15.0,90,0.00,,,0.00,WeatherTracker,2013-07-08 12:38:00,
2013-07-08 05:43:00,55.8,52.9,29.84,SW,236,18.0,18.0,90,0.00,,,0.00,WeatherTracker,2013-07-08 12:43:00,
2013-07-08 05:48:00,55.7,52.8,29.84,WSW,241,9.0,18.0,90,0.00,,,0.00,WeatherTracker,2013-07-08 12:48:00,
2013-07-08 05:53:00,55.7,52.8,29.84,SW,219,4.0,18.0,90,0.00,,,0.00,WeatherTracker,2013-07-08 12:53:00,
2013-07-08 05:58:00,55.8,52.9,29.84,WSW,241,5.0,15.0,90,0.00,,,0.00,WeatherTracker,2013-07-08 12:58:00,
2013-07-08 06:03:00,55.8,52.9,29.84,West,275,0.0,15.0,90,0.00,,,0.00,WeatherTracker,2013-07-08 13:03:00,
2013-07-08 06:08:00,55.8,52.9,29.84,WSW,258,5.0,16.0,90,0.00,,,0.00,WeatherTracker,2013-07-08 13:08:00,
2013-07-08 06:13:00,55.9,53.0,29.84,WSW,248,6.0,16.0,90,0.00,,,0.00,WeatherTracker,2013-07-08 13:13:00,
2013-07-08 06:18:00,55.9,53.0,29.84,SW,227,2.0,16.0,90,0.00,,,0.00,WeatherTracker,2013-07-08 13:18:00,
2013-07-08 06:23:00,55.9,53.0,29.84,SSW,193,7.0,14.0,90,0.00,,,0.00,WeatherTracker,2013-07-08 13:23:00,
2013-07-08 06:28:00,55.9,53.0,29.84,WSW,253,7.0,13.0,90,0.00,,,0.00,WeatherTracker,2013-07-08 13:28:00,
2013-07-08 06:33:00,55.8,52.9,29.85,South,188,2.0,13.0,90,0.00,,,0.00,WeatherTracker,2013-07-08 13:33:00,
2013-07-08 06:38:00,55.9,53.0,29.85,SSW,194,4.0,11.0,90,0.00,,,0.00,WeatherTracker,2013-07-08 13:38:00,
2013-07-08 06:43:00,55.9,53.0,29.85,SW,221,9.0,17.0,90,0.00,,,0.00,WeatherTracker,2013-07-08 13:43:00,
2013-07-08 06:48:00,55.9,53.0,29.85,WSW,252,6.0,17.0,90,0.00,,,0.00,WeatherTracker,2013-07-08 13:48:00,
2013-07-08 06:53:00,55.9,53.0,29.85,South,171,2.0,10.0,90,0.00,,,0.00,WeatherTracker,2013-07-08 13:53:00,
2013-07-08 06:58:00,56.0,53.1,29.85,South,175,5.0,15.0,90,0.00,,,0.00,WeatherTracker,2013-07-08 13:58:00,
2013-07-08 07:03:00,56.1,53.2,29.86,SW,232,12.0,17.0,90,0.00,,,0.00,WeatherTracker,2013-07-08 14:03:00,
2013-07-08 07:08:00,55.9,53.0,29.86,West,277,0.0,21.0,90,0.00,,,0.00,WeatherTracker,2013-07-08 14:08:00,
2013-07-08 07:13:00,56.0,53.1,29.86,South,169,5.0,21.0,90,0.00,,,0.00,WeatherTracker,2013-07-08 14:13:00,
2013-07-08 07:18:00,56.0,53.1,29.86,WSW,243,9.0,17.0,90,0.00,,,0.00,WeatherTracker,2013-07-08 14:18:00,
2013-07-08 07:23:00,55.9,53.0,29.86,SW,214,4.0,15.0,90,0.00,,,0.00,WeatherTracker,2013-07-08 14:23:00,
2013-07-08 07:28:00,56.0,53.1,29.86,SW,222,4.0,17.0,90,0.00,,,0.00,WeatherTracker,2013-07-08 14:28:00,
2013-07-08 07:33:00,55.8,52.9,29.87,SE,128,1.0,17.0,90,0.00,,,0.00,WeatherTracker,2013-07-08 14:33:00,
2013-07-08 07:38:00,56.0,53.1,29.87,SSW,203,4.0,8.0,90,0.00,,,0.00,WeatherTracker,2013-07-08 14:38:00,
2013-07-08 07:43:00,56.0,53.1,29.87,SSW,207,7.0,14.0,90,0.00,,,0.00,WeatherTracker,2013-07-08 14:43:00,
2013-07-08 07:48:00,55.9,53.0,29.87,ESE,119,2.0,15.0,90,0.00,,,0.00,WeatherTracker,2013-07-08 14:48:00,
2013-07-08 07:53:00,56.2,53.3,29.87,SSW,210,6.0,13.0,90,0.00,,,0.00,WeatherTracker,2013-07-08 14:53:00,
2013-07-08 07:59:00,56.1,53.2,29.87,SW,224,4.0,13.0,90,0.00,,,0.00,WeatherTracker,2013-07-08 14:59:00,
2013-07-08 08:04:00,56.2,53.3,29.87,SSW,203,6.0,12.0,90,0.00,,,0.00,WeatherTracker,2013-07-08 15:04:00,
2013-07-08 08:09:00,56.3,53.4,29.87,SW,220,3.0,12.0,90,0.00,,,0.00,WeatherTracker,2013-07-08 15:09:00,
2013-07-08 08:14:00,56.3,53.4,29.88,South,174,4.0,11.0,90,0.00,,,0.00,WeatherTracker,2013-07-08 15:14:00,
2013-07-08 08:19:00,56.5,53.6,29.88,SW,232,3.0,11.0,90,0.00,,,0.00,WeatherTracker,2013-07-08 15:19:00,
2013-07-08 08:24:00,56.6,53.4,29.88,South,184,2.0,11.0,89,0.00,,,0.00,WeatherTracker,2013-07-08 15:24:00,
2013-07-08 08:29:00,56.7,53.5,29.88,SW,234,15.0,15.0,89,0.00,,,0.00,WeatherTracker,2013-07-08 15:29:00,
2013-07-08 08:34:00,56.6,53.4,29.88,ESE,103,0.0,18.0,89,0.00,,,0.00,WeatherTracker,2013-07-08 15:34:00,
2013-07-08 08:39:00,56.7,53.5,29.88,SE,146,5.0,18.0,89,0.00,,,0.00,WeatherTracker,2013-07-08 15:39:00,
2013-07-08 08:44:00,56.8,53.6,29.88,SSE,148,1.0,13.0,89,0.00,,,0.00,WeatherTracker,2013-07-08 15:44:00,
2013-07-08 08:49:00,57.2,54.0,29.88,West,259,5.0,7.0,89,0.00,,,0.00,WeatherTracker,2013-07-08 15:49:00,
2013-07-08 08:54:00,57.2,53.7,29.88,SW,217,9.0,11.0,88,0.00,,,0.00,WeatherTracker,2013-07-08 15:54:00,
2013-07-08 08:59:00,57.1,53.6,29.89,WSW,244,1.0,11.0,88,0.00,,,0.00,WeatherTracker,2013-07-08 15:59:00,
2013-07-08 09:04:00,57.2,53.7,29.89,SW,232,5.0,11.0,88,0.00,,,0.00,WeatherTracker,2013-07-08 16:04:00,
2013-07-08 09:09:00,57.3,53.8,29.89,SSE,164,2.0,11.0,88,0.00,,,0.00,WeatherTracker,2013-07-08 16:09:00,
2013-07-08 09:15:00,57.8,54.3,29.89,SSE,166,3.0,6.0,88,0.00,,,0.00,WeatherTracker,2013-07-08 16:15:00,
2013-07-08 09:20:00,58.1,54.2,29.89,South,184,5.0,7.0,87,0.00,,,0.00,WeatherTracker,2013-07-08 16:20:00,
2013-07-08 09:25:00,57.8,53.6,29.89,WSW,252,9.0,9.0,86,0.00,,,0.00,WeatherTracker,2013-07-08 16:25:00,
2013-07-08 09:30:00,57.6,53.8,29.89,ESE,119,7.0,10.0,87,0.00,,,0.00,WeatherTracker,2013-07-08 16:30:00,
2013-07-08 09:35:00,57.8,54.0,29.89,NW,306,1.0,10.0,87,0.00,,,0.00,WeatherTracker,2013-07-08 16:35:00,
2013-07-08 09:40:00,58.4,54.5,29.89,ESE,107,0.0,7.0,87,0.00,,,0.00,WeatherTracker,2013-07-08 16:40:00,
2013-07-08 09:45:00,58.7,54.5,29.89,NE,44,4.0,7.0,86,0.00,,,0.00,WeatherTracker,2013-07-08 16:45:00,
2013-07-08 09:50:00,59.0,54.5,29.89,SE,145,3.0,6.0,85,0.00,,,0.00,WeatherTracker,2013-07-08 16:50:00,
2013-07-08 09:55:00,58.8,54.3,29.89,SE,145,3.0,9.0,85,0.00,,,0.00,WeatherTracker,2013-07-08 16:55:00,
2013-07-08 10:00:00,58.4,53.9,29.90,ESE,119,3.0,9.0,85,0.00,,,0.00,WeatherTracker,2013-07-08 17:00:00,
2013-07-08 10:05:00,58.4,54.2,29.90,East,83,2.0,7.0,86,0.00,,,0.00,WeatherTracker,2013-07-08 17:05:00,
2013-07-08 10:10:00,58.2,54.0,29.90,SSW,210,3.0,7.0,86,0.00,,,0.00,WeatherTracker,2013-07-08 17:10:00,
2013-07-08 10:15:00,58.0,53.8,29.90,NE,55,4.0,7.0,86,0.00,,,0.00,WeatherTracker,2013-07-08 17:15:00,
2013-07-08 10:20:00,58.5,54.3,29.90,ENE,69,5.0,12.0,86,0.00,,,0.00,WeatherTracker,2013-07-08 17:20:00,
2013-07-08 10:25:00,58.8,54.3,29.90,NE,42,2.0,12.0,85,0.00,,,0.00,WeatherTracker,2013-07-08 17:25:00,
2013-07-08 10:30:00,59.1,54.6,29.90,NNE,28,7.0,11.0,85,0.00,,,0.00,WeatherTracker,2013-07-08 17:30:00,
2013-07-08 10:35:00,59.0,54.2,29.90,WSW,241,3.0,8.0,84,0.00,,,0.00,WeatherTracker,2013-07-08 17:35:00,
2013-07-08 10:41:00,58.7,54.2,29.90,West,263,2.0,9.0,85,0.00,,,0.00,WeatherTracker,2013-07-08 17:41:00,
2013-07-08 10:46:00,58.4,53.9,29.90,ESE,119,4.0,10.0,85,0.00,,,0.00,WeatherTracker,2013-07-08 17:46:00,
2013-07-08 10:51:00,58.7,54.5,29.90,ESE,117,2.0,10.0,86,0.00,,,0.00,WeatherTracker,2013-07-08 17:51:00,
2013-07-08 10:56:00,58.9,54.4,29.90,SW,222,5.0,7.0,85,0.00,,,0.00,WeatherTracker,2013-07-08 17:56:00,
2013-07-08 11:01:00,58.4,53.9,29.91,SSE,164,3.0,6.0,85,0.00,,,0.00,WeatherTracker,2013-07-08 18:01:00,
2013-07-08 11:06:00,58.8,54.6,29.91,NNE,15,4.0,6.0,86,0.00,,,0.00,WeatherTracker,2013-07-08 18:06:00,
2013-07-08 11:11:00,59.4,54.6,29.91,NNW,344,10.0,10.0,84,0.00,,,0.00,WeatherTracker,2013-07-08 18:11:00,
2013-07-08 11:16:00,60.1,54.9,29.91,NE,48,5.0,11.0,83,0.00,,,0.00,WeatherTracker,2013-07-08 18:16:00,
2013-07-08 11:21:00,60.2,54.7,29.91,SW,215,4.0,11.0,82,0.00,,,0.00,WeatherTracker,2013-07-08 18:21:00,
2013-07-08 11:26:00,60.0,54.5,29.91,WSW,250,1.0,9.0,82,0.00,,,0.00,WeatherTracker,2013-07-08 18:26:00,
2013-07-08 11:31:00,59.9,54.4,29.91,SSE,166,4.0,8.0,82,0.00,,,0.00,WeatherTracker,2013-07-08 18:31:00,
2013-07-08 11:37:00,59.1,53.9,29.91,WSW,247,3.0,7.0,83,0.00,,,0.00,WeatherTracker,2013-07-08 18:37:00,
2013-07-08 11:42:00,59.0,54.2,29.91,SW,218,1.0,7.0,84,0.00,,,0.00,WeatherTracker,2013-07-08 18:42:00,
2013-07-08 11:47:00,59.7,54.5,29.91,NNE,26,12.0,12.0,83,0.00,,,0.00,WeatherTracker,2013-07-08 18:47:00,
2013-07-08 11:52:00,60.3,54.8,29.91,NW,325,3.0,13.0,82,0.00,,,0.00,WeatherTracker,2013-07-08 18:52:00,
2013-07-08 11:57:00,60.2,54.7,29.91,NNE,17,9.0,14.0,82,0.00,,,0.00,WeatherTracker,2013-07-08 18:57:00,
2013-07-08 12:02:00,60.3,54.4,29.91,ENE,59,3.0,14.0,81,0.00,,,0.00,WeatherTracker,2013-07-08 19:02:00,
2013-07-08 12:07:00,60.7,54.8,29.91,North,349,9.0,13.0,81,0.00,,,0.00,WeatherTracker,2013-07-08 19:07:00,
2013-07-08 12:13:00,60.7,54.8,29.91,NW,304,2.0,11.0,81,0.00,,,0.00,WeatherTracker,2013-07-08 19:13:00,
2013-07-08 12:18:00,61.1,54.9,29.91,NNW,338,6.0,17.0,80,0.00,,,0.00,WeatherTracker,2013-07-08 19:18:00,
2013-07-08 12:23:00,61.3,55.1,29.91,WNW,289,6.0,17.0,80,0.00,,,0.00,WeatherTracker,2013-07-08 19:23:00,
2013-07-08 12:28:00,60.8,54.6,29.91,NW,322,4.0,15.0,80,0.00,,,0.00,WeatherTracker,2013-07-08 19:28:00,
2013-07-08 12:33:00,61.0,54.8,29.91,North,5,7.0,15.0,80,0.00,,,0.00,WeatherTracker,2013-07-08 19:33:00,
2013-07-08 12:38:00,60.9,54.7,29.91,NW,309,6.0,18.0,80,0.00,,,0.00,WeatherTracker,2013-07-08 19:38:00,
2013-07-08 12:43:00,60.7,54.8,29.91,NNW,342,7.0,18.0,81,0.00,,,0.00,WeatherTracker,2013-07-08 19:43:00,
2013-07-08 12:48:00,60.7,54.8,29.91,North,360,2.0,14.0,81,0.00,,,0.00,WeatherTracker,2013-07-08 19:48:00,
2013-07-08 12:53:00,60.8,54.9,29.91,NNW,348,9.0,13.0,81,0.00,,,0.00,WeatherTracker,2013-07-08 19:53:00,
2013-07-08 12:59:00,60.9,55.0,29.91,NE,46,6.0,13.0,81,0.00,,,0.00,WeatherTracker,2013-07-08 19:59:00,
2013-07-08 13:04:00,61.1,55.2,29.91,NNW,348,9.0,12.0,81,0.00,,,0.00,WeatherTracker,2013-07-08 20:04:00,
2013-07-08 13:09:00,60.9,55.4,29.91,North,5,0.0,12.0,82,0.00,,,0.00,WeatherTracker,2013-07-08 20:09:00,
2013-07-08 13:15:00,61.3,55.8,29.90,WNW,302,3.0,12.0,82,0.00,,,0.00,WeatherTracker,2013-07-08 20:15:00,
2013-07-08 13:20:00,61.1,55.2,29.90,East,88,2.0,12.0,81,0.00,,,0.00,WeatherTracker,2013-07-08 20:20:00,
2013-07-08 13:25:00,61.0,55.5,29.90,NNW,336,4.0,13.0,82,0.00,,,0.00,WeatherTracker,2013-07-08 20:25:00,
2013-07-08 13:30:00,61.4,55.9,29.90,SE,126,5.0,13.0,82,0.00,,,0.00,WeatherTracker,2013-07-08 20:30:00,
2013-07-08 13:35:00,61.2,55.7,29.90,North,355,7.0,18.0,82,0.00,,,0.00,WeatherTracker,2013-07-08 20:35:00,
2013-07-08 13:40:00,60.9,55.0,29.90,North,5,10.0,19.0,81,0.00,,,0.00,WeatherTracker,2013-07-08 20:40:00,
2013-07-08 13:45:00,60.7,55.2,29.90,NNW,337,12.0,24.0,82,0.00,,,0.00,WeatherTracker,2013-07-08 20:45:00,
2013-07-08 13:50:00,60.6,55.4,29.90,North,355,13.0,24.0,83,0.00,,,0.00,WeatherTracker,2013-07-08 20:50:00,
2013-07-08 13:55:00,60.8,55.6,29.90,NNW,327,5.0,22.0,83,0.00,,,0.00,WeatherTracker,2013-07-08 20:55:00,
2013-07-08 14:00:00,60.8,55.3,29.90,NW,322,10.0,19.0,82,0.00,,,0.00,WeatherTracker,2013-07-08 21:00:00,
2013-07-08 14:06:00,60.7,55.2,29.90,WNW,302,9.0,19.0,82,0.00,,,0.00,WeatherTracker,2013-07-08 21:06:00,
2013-07-08 14:11:00,60.8,55.3,29.90,NW,321,10.0,19.0,82,0.00,,,0.00,WeatherTracker,2013-07-08 21:11:00,
2013-07-08 14:16:00,61.0,55.5,29.90,North,355,2.0,19.0,82,0.00,,,0.00,WeatherTracker,2013-07-08 21:16:00,
2013-07-08 14:21:00,61.0,55.5,29.90,North,5,17.0,21.0,82,0.00,,,0.00,WeatherTracker,2013-07-08 21:21:00,
2013-07-08 14:26:00,60.8,55.3,29.90,West,277,6.0,21.0,82,0.00,,,0.00,WeatherTracker,2013-07-08 21:26:00,
2013-07-08 14:31:00,60.8,55.6,29.90,North,350,15.0,19.0,83,0.00,,,0.00,WeatherTracker,2013-07-08 21:31:00,
2013-07-08 14:36:00,60.9,55.4,29.90,WNW,282,13.0,21.0,82,0.00,,,0.00,WeatherTracker,2013-07-08 21:36:00,
2013-07-08 14:41:00,60.9,55.7,29.90,NNW,333,10.0,21.0,83,0.00,,,0.00,WeatherTracker,2013-07-08 21:41:00,
2013-07-08 14:46:00,60.9,55.7,29.89,West,267,7.0,21.0,83,0.00,,,0.00,WeatherTracker,2013-07-08 21:46:00,
2013-07-08 14:52:00,60.7,55.2,29.89,NW,306,4.0,21.0,82,0.00,,,0.00,WeatherTracker,2013-07-08 21:52:00,
2013-07-08 14:57:00,60.8,55.6,29.89,NW,324,12.0,21.0,83,0.00,,,0.00,WeatherTracker,2013-07-08 21:57:00,
2013-07-08 15:02:00,60.8,55.6,29.90,North,355,7.0,17.0,83,0.00,,,0.00,WeatherTracker,2013-07-08 22:02:00,
2013-07-08 15:07:00,60.9,55.4,29.90,NW,315,6.0,20.0,82,0.00,,,0.00,WeatherTracker,2013-07-08 22:07:00,
2013-07-08 15:13:00,61.7,55.8,29.90,WNW,291,9.0,23.0,81,0.00,,,0.00,WeatherTracker,2013-07-08 22:13:00,
2013-07-08 15:18:00,61.1,55.2,29.89,WNW,303,9.0,17.0,81,0.00,,,0.00,WeatherTracker,2013-07-08 22:18:00,
2013-07-08 15:23:00,61.2,55.7,29.89,West,281,6.0,21.0,82,0.00,,,0.00,WeatherTracker,2013-07-08 22:23:00,
2013-07-08 15:28:00,61.7,55.8,29.89,North,360,6.0,21.0,81,0.00,,,0.00,WeatherTracker,2013-07-08 22:28:00,
2013-07-08 15:33:00,61.9,56.0,29.89,North,5,14.0,19.0,81,0.00,,,0.00,WeatherTracker,2013-07-08 22:33:00,
2013-07-08 15:39:00,62.2,55.9,29.89,NNW,329,11.0,16.0,80,0.00,,,0.00,WeatherTracker,2013-07-08 22:39:00,
2013-07-08 15:44:00,61.8,55.9,29.88,North,360,6.0,20.0,81,0.00,,,0.00,WeatherTracker,2013-07-08 22:44:00,
2013-07-08 15:49:00,62.1,56.2,29.88,WSW,245,3.0,20.0,81,0.00,,,0.00,WeatherTracker,2013-07-08 22:49:00,
2013-07-08 15:55:00,62.1,55.9,29.88,WNW,286,9.0,17.0,80,0.00,,,0.00,WeatherTracker,2013-07-08 22:55:00,
2013-07-08 16:00:00,61.8,55.9,29.88,North,355,11.0,21.0,81,0.00,,,0.00,WeatherTracker,2013-07-08 23:00:00,
2013-07-08 16:05:00,61.8,55.9,29.88,WNW,289,6.0,21.0,81,0.00,,,0.00,WeatherTracker,2013-07-08 23:05:00,
2013-07-08 16:10:00,61.6,55.7,29.88,WNW,298,15.0,21.0,81,0.00,,,0.00,WeatherTracker,2013-07-08 23:10:00,
2013-07-08 16:15:00,61.8,56.2,29.88,WNW,301,17.0,21.0,82,0.00,,,0.00,WeatherTracker,2013-07-08 23:15:00,
2013-07-08 16:20:00,61.6,55.7,29.88,WNW,283,13.0,21.0,81,0.00,,,0.00,WeatherTracker,2013-07-08 23:20:00,
2013-07-08 16:26:00,62.0,55.8,29.88,NNW,345,14.0,22.0,80,0.00,,,0.00,WeatherTracker,2013-07-08 23:26:00,
2013-07-08 16:31:00,62.1,56.2,29.88,NW,319,4.0,17.0,81,0.00,,,0.00,WeatherTracker,2013-07-08 23:31:00,
2013-07-08 16:36:00,62.5,56.2,29.88,NNW,338,13.0,17.0,80,0.00,,,0.00,WeatherTracker,2013-07-08 23:36:00,
2013-07-08 16:41:00,61.9,55.7,29.88,NW,315,5.0,19.0,80,0.00,,,0.00,WeatherTracker,2013-07-08 23:41:00,
2013-07-08 16:46:00,61.7,56.1,29.88,NW,319,8.0,19.0,82,0.00,,,0.00,WeatherTracker,2013-07-08 23:46:00,
2013-07-08 16:51:00,61.9,56.0,29.88,WNW,297,3.0,17.0,81,0.00,,,0.00,WeatherTracker,2013-07-08 23:51:00,
2013-07-08 16:56:00,62.1,55.9,29.88,NW,324,12.0,17.0,80,0.00,,,0.00,WeatherTracker,2013-07-08 23:56:00,
2013-07-08 17:01:00,61.4,55.5,29.88,WNW,290,6.0,20.0,81,0.00,,,0.00,WeatherTracker,2013-07-09 00:01:00,
2013-07-08 17:06:00,61.4,55.5,29.88,North,355,7.0,21.0,81,0.00,,,0.00,WeatherTracker,2013-07-09 00:06:00,
2013-07-08 17:11:00,61.8,55.6,29.88,North,11,2.0,21.0,80,0.00,,,0.00,WeatherTracker,2013-07-09 00:11:00,
2013-07-08 17:16:00,62.0,55.8,29.87,NW,315,9.0,23.0,80,0.00,,,0.00,WeatherTracker,2013-07-09 00:16:00,
2013-07-08 17:22:00,61.4,55.5,29.87,NNW,332,11.0,23.0,81,0.00,,,0.00,WeatherTracker,2013-07-09 00:22:00,
2013-07-08 17:27:00,61.6,55.7,29.87,NW,318,9.0,22.0,81,0.00,,,0.00,WeatherTracker,2013-07-09 00:27:00,
2013-07-08 17:32:00,61.6,55.7,29.87,NNW,327,12.0,17.0,81,0.00,,,0.00,WeatherTracker,2013-07-09 00:32:00,
2013-07-08 17:37:00,61.6,55.7,29.87,WNW,287,17.0,19.0,81,0.00,,,0.00,WeatherTracker,2013-07-09 00:37:00,
2013-07-08 17:42:00,60.9,55.4,29.87,NW,321,10.0,23.0,82,0.00,,,0.00,WeatherTracker,2013-07-09 00:42:00,
2013-07-08 17:47:00,61.1,55.9,29.86,NW,317,11.0,23.0,83,0.00,,,0.00,WeatherTracker,2013-07-09 00:47:00,
2013-07-08 17:53:00,61.3,55.8,29.86,NNW,337,4.0,18.0,82,0.00,,,0.00,WeatherTracker,2013-07-09 00:53:00,
2013-07-08 17:58:00,61.1,55.9,29.86,West,276,14.0,19.0,83,0.00,,,0.00,WeatherTracker,2013-07-09 00:58:00,
2013-07-08 18:03:00,61.4,55.9,29.86,WSW,254,8.0,19.0,82,0.00,,,0.00,WeatherTracker,2013-07-09 01:03:00,
2013-07-08 18:08:00,61.4,55.9,29.86,WNW,303,15.0,20.0,82,0.00,,,0.00,WeatherTracker,2013-07-09 01:08:00,
2013-07-08 18:14:00,61.8,56.2,29.86,NNW,343,9.0,20.0,82,0.00,,,0.00,WeatherTracker,2013-07-09 01:14:00,
2013-07-08 18:19:00,61.7,55.8,29.86,NW,317,11.0,18.0,81,0.00,,,0.00,WeatherTracker,2013-07-09 01:19:00,
2013-07-08 18:24:00,61.8,56.2,29.86,WNW,292,16.0,18.0,82,0.00,,,0.00,WeatherTracker,2013-07-09 01:24:00,
2013-07-08 18:29:00,61.6,55.7,29.86,NNW,340,14.0,24.0,81,0.00,,,0.00,WeatherTracker,2013-07-09 01:29:00,
2013-07-08 18:34:00,61.6,55.7,29.86,NNW,332,10.0,24.0,81,0.00,,,0.00,WeatherTracker,2013-07-09 01:34:00,
2013-07-08 18:39:00,61.3,55.8,29.86,WNW,301,18.0,21.0,82,0.00,,,0.00,WeatherTracker,2013-07-09 01:39:00,
2013-07-08 18:45:00,61.1,55.9,29.86,NNW,340,14.0,21.0,83,0.00,,,0.00,WeatherTracker,2013-07-09 01:45:00,
2013-07-08 18:50:00,61.0,55.5,29.86,WNW,286,15.0,21.0,82,0.00,,,0.00,WeatherTracker,2013-07-09 01:50:00,
2013-07-08 18:55:00,61.0,55.8,29.86,NW,312,11.0,19.0,83,0.00,,,0.00,WeatherTracker,2013-07-09 01:55:00,
2013-07-08 19:00:00,61.5,56.0,29.86,WNW,296,4.0,16.0,82,0.00,,,0.00,WeatherTracker,2013-07-09 02:00:00,
2013-07-08 19:05:00,61.7,56.1,29.86,North,360,9.0,12.0,82,0.00,,,0.00,WeatherTracker,2013-07-09 02:05:00,
2013-07-08 19:10:00,62.3,56.0,29.86,NW,306,5.0,14.0,80,0.00,,,0.00,WeatherTracker,2013-07-09 02:10:00,
2013-07-08 19:15:00,62.0,55.8,29.87,North,9,5.0,14.0,80,0.00,,,0.00,WeatherTracker,2013-07-09 02:15:00,
2013-07-08 19:20:00,61.8,55.6,29.87,NNW,340,5.0,16.0,80,0.00,,,0.00,WeatherTracker,2013-07-09 02:20:00,
2013-07-08 19:25:00,60.5,55.0,29.87,NW,317,3.0,16.0,82,0.00,,,0.00,WeatherTracker,2013-07-09 02:25:00,
2013-07-08 19:30:00,59.8,55.0,29.87,NW,321,9.0,16.0,84,0.00,,,0.00,WeatherTracker,2013-07-09 02:30:00,
2013-07-08 19:35:00,59.2,54.7,29.87,NW,317,3.0,14.0,85,0.00,,,0.00,WeatherTracker,2013-07-09 02:35:00,
2013-07-08 19:40:00,59.1,54.9,29.87,SSW,206,7.0,11.0,86,0.00,,,0.00,WeatherTracker,2013-07-09 02:40:00,
2013-07-08 19:45:00,58.9,54.7,29.87,North,355,3.0,11.0,86,0.00,,,0.00,WeatherTracker,2013-07-09 02:45:00,
2013-07-08 19:50:00,58.7,54.5,29.87,NE,44,4.0,11.0,86,0.00,,,0.00,WeatherTracker,2013-07-09 02:50:00,
2013-07-08 19:55:00,58.4,54.5,29.87,NNE,30,0.0,10.0,87,0.00,,,0.00,WeatherTracker,2013-07-09 02:55:00,
2013-07-08 20:00:00,58.2,54.3,29.87,NNE,15,6.0,10.0,87,0.00,,,0.00,WeatherTracker,2013-07-09 03:00:00,
2013-07-08 20:05:00,58.1,54.6,29.87,North,360,0.0,10.0,88,0.00,,,0.00,WeatherTracker,2013-07-09 03:05:00,
2013-07-08 20:11:00,58.2,54.7,29.87,WSW,253,5.0,10.0,88,0.00,,,0.00,WeatherTracker,2013-07-09 03:11:00,
2013-07-08 20:16:00,58.3,54.8,29.87,West,259,3.0,11.0,88,0.00,,,0.00,WeatherTracker,2013-07-09 03:16:00,
2013-07-08 20:21:00,58.4,54.5,29.87,NW,315,11.0,11.0,87,0.00,,,0.00,WeatherTracker,2013-07-09 03:21:00,
2013-07-08 20:26:00,58.4,54.5,29.87,West,273,9.0,18.0,87,0.00,,,0.00,WeatherTracker,2013-07-09 03:26:00,
2013-07-08 20:31:00,58.0,54.2,29.88,West,276,10.0,18.0,87,0.00,,,0.00,WeatherTracker,2013-07-09 03:31:00,
2013-07-08 20:36:00,57.8,54.0,29.88,NW,315,11.0,16.0,87,0.00,,,0.00,WeatherTracker,2013-07-09 03:36:00,
2013-07-08 20:42:00,57.5,54.0,29.88,NNW,329,9.0,12.0,88,0.00,,,0.00,WeatherTracker,2013-07-09 03:42:00,
2013-07-08 20:47:00,57.3,53.8,29.88,NW,309,5.0,14.0,88,0.00,,,0.00,WeatherTracker,2013-07-09 03:47:00,
2013-07-08 20:52:00,57.1,53.9,29.88,NW,313,9.0,14.0,89,0.00,,,0.00,WeatherTracker,2013-07-09 03:52:00,
2013-07-08 20:57:00,57.0,53.8,29.88,NW,326,9.0,16.0,89,0.00,,,0.00,WeatherTracker,2013-07-09 03:57:00,
2013-07-08 21:01:00,57.0,53.8,29.88,WNW,299,5.0,16.0,89,0.00,,,0.00,WeatherTracker,2013-07-09 04:01:00,
2013-07-08 21:02:00,56.9,53.7,29.88,West,280,5.0,16.0,89,0.00,,,0.00,WeatherTracker,2013-07-09 04:02:00,
2013-07-08 21:07:00,56.9,54.0,29.88,NNW,345,3.0,10.0,90,0.00,,,0.00,WeatherTracker,2013-07-09 04:07:00,
2013-07-08 21:13:00,56.8,54.5,29.88,NW,311,5.0,13.0,92,0.00,,,0.00,WeatherTracker,2013-07-09 04:13:00,
2013-07-08 21:18:00,56.6,53.7,29.89,WNW,288,9.0,13.0,90,0.00,,,0.00,WeatherTracker,2013-07-09 04:18:00,
2013-07-08 21:23:00,56.6,53.7,29.89,WNW,295,4.0,12.0,90,0.00,,,0.00,WeatherTracker,2013-07-09 04:23:00,
2013-07-08 21:28:00,56.6,54.0,29.89,WNW,302,10.0,14.0,91,0.00,,,0.00,WeatherTracker,2013-07-09 04:28:00,
2013-07-08 21:33:00,56.5,53.9,29.90,NNW,328,2.0,14.0,91,0.00,,,0.00,WeatherTracker,2013-07-09 04:33:00,
2013-07-08 21:38:00,56.6,54.0,29.90,WNW,303,0.0,12.0,91,0.00,,,0.00,WeatherTracker,2013-07-09 04:38:00,
2013-07-08 21:43:00,56.7,54.1,29.90,West,281,7.0,11.0,91,0.00,,,0.00,WeatherTracker,2013-07-09 04:43:00,
2013-07-08 21:48:00,56.4,53.8,29.90,West,280,6.0,11.0,91,0.00,,,0.00,WeatherTracker,2013-07-09 04:48:00,
2013-07-08 21:53:00,56.1,53.5,29.90,WSW,239,5.0,11.0,91,0.00,,,0.00,WeatherTracker,2013-07-09 04:53:00,
2013-07-08 21:58:00,55.9,53.3,29.90,WSW,253,0.0,10.0,91,0.00,,,0.00,WeatherTracker,2013-07-09 04:58:00,
2013-07-08 22:03:00,55.8,53.5,29.91,ESE,114,4.0,10.0,92,0.00,,,0.00,WeatherTracker,2013-07-09 05:03:00,
2013-07-08 22:08:00,55.8,53.5,29.91,NE,36,1.0,8.0,92,0.00,,,0.00,WeatherTracker,2013-07-09 05:08:00,
2013-07-08 22:13:00,55.7,53.4,29.91,NW,315,5.0,10.0,92,0.00,,,0.00,WeatherTracker,2013-07-09 05:13:00,
2013-07-08 22:18:00,55.7,53.4,29.91,NNW,331,2.0,10.0,92,0.00,,,0.00,WeatherTracker,2013-07-09 05:18:00,
2013-07-08 22:23:00,55.6,53.6,29.91,WNW,295,4.0,12.0,93,0.00,,,0.00,WeatherTracker,2013-07-09 05:23:00,
2013-07-08 22:28:00,55.5,53.2,29.91,WNW,289,4.0,13.0,92,0.00,,,0.00,WeatherTracker,2013-07-09 05:28:00,
2013-07-08 22:33:00,55.5,53.2,29.92,WNW,290,4.0,14.0,92,0.00,,,0.00,WeatherTracker,2013-07-09 05:33:00,
2013-07-08 22:38:00,55.5,53.2,29.92,NNW,346,6.0,14.0,92,0.00,,,0.00,WeatherTracker,2013-07-09 05:38:00,
2013-07-08 22:43:00,55.5,53.2,29.92,WNW,288,4.0,14.0,92,0.00,,,0.00,WeatherTracker,2013-07-09 05:43:00,
2013-07-08 22:48:00,55.6,53.3,29.91,NNW,334,0.0,14.0,92,0.00,,,0.00,WeatherTracker,2013-07-09 05:48:00,
2013-07-08 22:53:00,55.8,53.8,29.91,NNW,334,3.0,5.0,93,0.00,,,0.00,WeatherTracker,2013-07-09 05:53:00,
2013-07-08 22:58:00,55.5,53.2,29.91,NNW,334,0.0,4.0,92,0.00,,,0.00,WeatherTracker,2013-07-09 05:58:00,
2013-07-08 23:04:00,55.4,53.1,29.91,NNW,334,0.0,4.0,92,0.00,,,0.00,WeatherTracker,2013-07-09 06:04:00,
2013-07-08 23:09:00,55.5,53.2,29.91,East,87,4.0,4.0,92,0.00,,,0.00,WeatherTracker,2013-07-09 06:09:00,
2013-07-08 23:14:00,55.6,53.3,29.92,SE,129,4.0,7.0,92,0.00,,,0.00,WeatherTracker,2013-07-09 06:14:00,
2013-07-08 23:19:00,55.9,53.6,29.92,SE,130,2.0,7.0,92,0.00,,,0.00,WeatherTracker,2013-07-09 06:19:00,
2013-07-08 23:24:00,56.1,53.8,29.92,SE,130,3.0,7.0,92,0.00,,,0.00,WeatherTracker,2013-07-09 06:24:00,
2013-07-08 23:29:00,56.1,53.8,29.92,SE,130,1.0,5.0,92,0.00,,,0.00,WeatherTracker,2013-07-09 06:29:00,
2013-07-08 23:34:00,56.2,53.9,29.92,SE,130,0.0,4.0,92,0.00,,,0.00,WeatherTracker,2013-07-09 06:34:00,
2013-07-08 23:39:00,56.0,53.7,29.92,South,179,4.0,6.0,92,0.00,,,0.00,WeatherTracker,2013-07-09 06:39:00,
2013-07-08 23:44:00,55.9,53.6,29.92,SW,236,6.0,6.0,92,0.00,,,0.00,WeatherTracker,2013-07-09 06:44:00,
2013-07-08 23:49:00,55.7,53.4,29.92,WSW,251,1.0,6.0,92,0.00,,,0.00,WeatherTracker,2013-07-09 06:49:00,
2013-07-08 23:54:00,55.6,53.3,29.92,NE,36,4.0,6.0,92,0.00,,,0.00,WeatherTracker,2013-07-09 06:54:00,
2013-07-08 23:59:00,55.6,53.3,29.92,NE,38,3.0,4.0,92,0.00,,,0.00,WeatherTracker,2013-07-09 06:59:00,